Hourly Data Report for September 06, 2017

All times are specified in Local Standard Time (LST). Add 1 hour to adjust for Daylight Saving Time where and when it is observed.

IQALUIT CLIMATE
NUNAVUT

63°44'50.000" N
68°32'40.000" W
33.50 m
2402592
71321
XFB

Download Data

Hourly Data (September 2017)
Hourly Data Report for September 6, 2017
Temp Definition
°C
Dew Point Temp Definition
°C
Rel Hum Definition
%
Wind Dir Definition
10's deg

Wind Spd Definition
km/h
Visibility Definition
km
Stn Press Definition
kPa
Hmdx Definition


Wind Chill Definition


Weather Definition


TIME
00:00 3.1 -0.4 78 16 2   100.42     LegendNANA
01:00 2.7 0.4 85 12 2   100.43     LegendNANA
02:00 2.8 -0.6 78 28 3   100.45     LegendNANA
03:00
04:00 2.4 0.2 85 21 2   100.49     LegendNANA
05:00 2.7 0.2 84   0   100.51     LegendNANA
06:00 3.1 0.7 84 28 3   100.54     LegendNANA
07:00 3.7 0.6 80 5 2   100.57     LegendNANA
08:00
09:00 4.6 0.3 74 18 2   100.63     LegendNANA
10:00 4.8 0.3 73 21 6   100.65     LegendNANA
11:00 5.4 0.3 70 17 5   100.67     LegendNANA
12:00 5.0 0.0 70 20 10   100.68     LegendNANA
13:00 5.4 0.2 69 22 10   100.73     LegendNANA
14:00 5.5 -0.3 67 21 7   100.75     LegendNANA
15:00 5.3 0.4 71 15 6   100.79     LegendNANA
16:00 5.0 0.6 73 14 6   100.84     LegendNANA
17:00 4.5 0.8 77 13 7   100.87     LegendNANA
18:00 4.1 0.8 79 15 5   100.92     LegendNANA
19:00 3.6 0.1 78 12 7   100.97     LegendNANA
20:00 2.9 0.2 82 12 7   101.00     LegendNANA
21:00 2.7 0.2 84 15 4   101.04     LegendNANA
22:00 2.8 0.3 84 14 4   101.07     LegendNANA
23:00 3.0 0.3 82 14 2   101.10     LegendNANA

Notes on Data Quality.

Legend

  • E = Estimated
  • M = Missing
  • NA = Not Available
  • ‡ = Partner data that is not subject to review by the National Climate Archives
Date modified: